Погода в Долгих

Россия / Курганская область     55°27′01″N   67°44′06″E
темп.,
°C
ветер,
м/с
пор.,
м/с
влажн.,
%
обл.,
%
осадки,
мм/ч
давл.,
гПа
погр.,
м
22 января, сб
сб2223:00−22юз2210028 0.0 10289
02:00−24з1110050 0.0 10299
05:00−24зюз2210086 0.0 10309
08:00−24зюз11100100 0.0 10319
11:00−18юз229574 0.0 103250
14:00−14зюз11905 0.0 103228
17:00−19зюз119649 0.0 10339
20:00−21юз1110014 0.0 10359
23 января, вс
вс2323:00−21ююз11100100 0.0 10359
02:00−21з1110085 0.0 10369
05:00−22юв1110090 0.0 10369
08:00−23в0010079 0.0 10379
11:00−17ююв119663 0.0 103832
14:00−13ююв11946 0.0 103823
17:00−19ююз0010026 0.0 10409
20:00−21юз111005 0.0 10419
24 января, пн
пн2423:00−22юз1110034 0.0 10419
02:00−22ююз1110099 0.0 104112
05:00−23ю2299100 0.0 104114
08:00−20юз2293100 0.0 104123
11:00−15юз3586100 0.0 1041103
14:00−12ююз3587100 0.0 1039152
17:00−13ююз3689100 0.0 1038120
20:00−14юз3689100 0.0 103788
25 января, вт
вт2523:00−14зюз3789100 0.0 1035138
02:00−12зюз4795100 0.2 1033181
05:00−12зюз379681 0.6 1032137
08:00−14з3699100 0.1 103188
11:00−15з369887 0.1 1031113
14:00−13з35965 0.0 1030150
17:00−19з2210054 0.0 103010
20:00−22з22100100 0.0 10309
26 января, ср
ср2623:00−23зюз11100100 0.0 10309
02:00−23юз00100100 0.0 10309
05:00−23ю11100100 0.1 10309
08:00−24ююв11100100 0.0 10319
11:00−18ююз22100100 0.1 103150
14:00−13ююз12955 0.0 103162
17:00−19ююв3310045 0.0 103215
20:00−22ю2210077 0.0 103322